Regional Weather Roundup
Issued by NWS Albany, NY

Home | Current Version | Previous Version | Graphics & Text | Print | Product List | Glossary On
Versions: 1 2 3 4 5 6 7 8 9 10 11 12 13 14 15 16 17 18 19 20 21 22 23 24 25 26 27 28 29 30 31 32 33 34 35 36 37 38 39 40 41 42 43 44 45 46 47 48 49 50
000
ASUS41 KALY 122210
RWRALY

NEW YORK STATE HOURLY WEATHER ROUNDUP
NATIONAL WEATHER SERVICE ALBANY NY
500 PM EST FRI FEB 12 2016

NOTE: "FAIR" INDICATES FEW OR NO CLOUDS BELOW 12,000 FEET WITH NO
SIGNIFICANT WEATHER AND/OR NO OBSTRUCTIONS TO VISIBILITY.

NYZ032-033-038>043-046>054-057>066-NYZ062>081-122300-
EAST


CITY           SKY/WX    TMP DP  RH WIND       PRES   REMARKS
ALBANY         CLOUDY    24   2  38 S10       29.94F WCI  14
GLENS FALLS    CLOUDY    22   3  44 S7        29.93F WCI  13
POUGHKEEPSIE   CLOUDY    26   1  34 W5        29.99F WCI  20
NEWBURGH       PTCLDY    23   5  46 W12G20    29.98F WCI  12
MONTGOMERY     CLOUDY    23   3  42 SW15      29.97F WCI  10
WHITE PLAINS   CLOUDY    24  -2  32 VRB7      29.99F WCI  16
ISLIP          CLOUDY    23   8  52 SW6       30.04F WCI  16
NEW YORK CITY  CLOUDY    26   0  32 S14G20    30.03F WCI  14
CENTRAL PARK   CLOUDY    25   0  33 SW8       30.04F WCI  16
$$

NYZ005>009-017-018-044>046-055-056-122300-
CENTRAL


CITY           SKY/WX    TMP DP  RH WIND       PRES   REMARKS
FULTON         CLOUDY    25   8  48 S13G25    29.85F WCI  14
SYRACUSE       PTCLDY    21   7  54 S20       29.87F WCI   6
ROME           MOCLDY    21   6  52 S12       29.90F WCI   9
ELMIRA         CLOUDY    20   8  60 SW12      29.88F WCI   8
BINGHAMTON     CLOUDY    16   3  56 S10       29.84F WCI   4
MONTICELLO     CLOUDY    18   3  53 SW7       29.90F WCI   8
$$

NYZ026>034-041>043-122300-
NORTH


CITY           SKY/WX    TMP DP  RH WIND       PRES   REMARKS
WATERTOWN      CLOUDY    24   9  52 S13G20    29.80F WCI  12
FORT DRUM      NOT AVBL
MASSENA        HVY SNOW  20  16  84 S15       29.81F VSB 1/4 WCI   6
SARANAC LAKE   CLOUDY    16   4  59 SW13G22   29.72F WCI   2
PLATTSBURGH    CLOUDY    21   6  52 S17G23    29.85F WCI   7
$$

NYZ001>004-010>016-019>021-122300-
WEST


CITY           SKY/WX    TMP DP  RH WIND       PRES   REMARKS
NIAGARA FALLS  MOCLDY    22  14  71 W14       29.84F WCI   9
BUFFALO        HVY SNOW  20  16  84 W22G32    29.85R VSB<1/4 WCI   3
DUNKIRK        CLOUDY    21  10  62 SW22G30   29.86F WCI   5
JAMESTOWN      CLOUDY    16   9  73 SW9G16    29.81S WCI   4
WELLSVILLE     LGT SNOW  15   7  70 SW10      29.80F WCI   2
ROCHESTER      FLURRIES  24   7  48 W18G37    29.84F WCI  10
PENN YAN       CLOUDY    23   5  46 SW17      29.84F WCI   9
$$

             KEY
       WCI = WIND CHILL INDEX
       VSB = VISIBILITY
       HX  = HEAT INDEX
$$



USA.gov is the U.S. government's official web portal to all federal, state and local government web resources and services.